Regional Weather Roundup
Issued by NWS

Home | Current Version | Previous Version | Graphics & Text | Print | Product List | Glossary Off
Versions: 1 2 3 4 5 6 7 8 9 10 11 12 13 14 15 16 17 18 19 20 21 22 23 24 25 26 27 28 29 30 31 32 33 34 35 36 37 38 39 40 41 42 43 44 45 46 47 48 49 50

000
ASUS43 KDTX 232210
RWRMI
MICHIGAN HOURLY REGIONAL WEATHER ROUNDUP
NATIONAL WEATHER SERVICE DETROIT/PONTIAC MI
600 PM EDT TUE AUG 23 2016

NOTE: "FAIR" INDICATES FEW OR NO CLOUDS BELOW 12,000 FEET WITH NO
SIGNIFICANT WEATHER AND/OR OBSTRUCTION TO VISIBILITY.

MIZ047>049-052>055-059>063-066>070-074>076-081>083-232300-
SOUTHEAST LOWER MICHIGAN

CITY           SKY/WX    TMP DP  RH WIND       PRES   REMARKS
ADRIAN         SUNNY     77  60  55 S7        30.22F
ALMA           MOSUNNY   78  61  56 S9        30.18F
ANN ARBOR      MOSUNNY   79  60  52 S9        30.21F
BAD AXE        SUNNY     78  58  49 SW7       30.19S
CARO           SUNNY     78  60  54 SW8       30.18S
DETROIT CITY   PTSUNNY   78  61  55 S8        30.21S
DETROIT        PTSUNNY   80  59  48 S13       30.22S
FLINT          CLOUDY    82  60  47 SW7       30.20S
GROSSE ILE     CLOUDY    79  62  55 S12       30.21S
HILLSDALE      SUNNY     78  58  50 S8        30.22S
HOWELL         MOSUNNY   78  58  48 S9        30.21S

CITY           SKY/WX    TMP DP  RH WIND       PRES   REMARKS
JACKSON        MOSUNNY   79  57  46 SW10      30.21S
LAMBERTVILLE   MOSUNNY   81  59  46 SW5       30.22S
LANSING        MOSUNNY   79  58  48 SW12      30.20S
LAPEER         FAIR      79  57  47 S9        30.20F
MASON          MOSUNNY   78  59  51 SW6       30.21S
MONROE         MOSUNNY   80  62  53 S10       30.20F
MT. CLEMENS    PTSUNNY   78  62  59 S16       30.18F
PONTIAC        PTSUNNY   78  57  48 SW12      30.21S
PORT HURON     SUNNY     77  61  57 S10       30.21S
TRI CITIES     SUNNY     79  60  52 SW16      30.19R
MIDLAND        FAIR      80  59  49 S7G17     30.17S
TROY           CLOUDY    81  54  39 SW10      30.23S
SAGINAW HB     CLOUDY    79  59  50 SW10      30.18S
$$
MIZ043>046-050>051-056>058-064>065-071>073-077>080-232300-
SOUTHWEST LOWER MICHIGAN

CITY           SKY/WX    TMP DP  RH WIND       PRES   REMARKS
BATTLE CREEK   MOSUNNY   75  60  59 S12       30.20F
BENTON HARBOR  MOSUNNY   80  58  46 SE13      30.17S
BIG RAPIDS     CLOUDY    77  56  48 SW9       30.17S
COLDWATER      MOSUNNY   78  58  50 S3        30.21S
FREMONT        FAIR      76  53  44 SW13G18   30.17S
HOLLAND        SUNNY     78  62  57 SW7       30.18F
GRAND RAPIDS   PTSUNNY   79  58  48 S9        30.18F
IONIA          FAIR      78  57  47 S12       30.18F
KALAMAZOO      MOSUNNY   79  59  50 S10       30.19F
LUDINGTON      PTSUNNY   77  60  56 S14G23    30.13F
MARSHALL       MOSUNNY   79  59  50 SW8       30.20F
MOUNT PLEASANT SUNNY     79  59  50 S8        30.17S
MUSKEGON       PTSUNNY   79  61  53 S15       30.16F
SOUTH HAVEN    SUNNY     80  60  51 S9        30.17S
$$
MIZ016>042-232300-
NORTHERN LOWER MICHIGAN

CITY           SKY/WX    TMP DP  RH WIND       PRES   REMARKS
ALPENA         SUNNY     86  55  34 SW9       30.11S
BEAVER ISLAND  CLOUDY    76  62  60 SW12G21   30.10S
BELLAIRE       CLOUDY    82  59  45 SW9       30.10S
CADILLAC       MOSUNNY   75  58  54 S13G18    30.16S
CHARLEVOIX     CLOUDY    80  60  51 S12       30.13S
FRANKFORT      CLOUDY    77  60  55 SW14G22   30.12S
GAYLORD        CLOUDY    80  59  48 SW16      30.14S
GRAYLING       CLOUDY    81  61  50 S10G16    30.16S
HARBOR SPRINGS SUNNY     77  63  61 W7G16     30.10S
HOUGHTON LAKE  CLOUDY    79  58  48 S8        30.17R
MANISTEE       PTSUNNY   78  60  53 S15       30.12F
OSCODA         SUNNY     81  61  50 SW10      30.13S
PELLSTON       SUNNY     80  60  50 W10       30.10F
ROGERS CITY    SUNNY     78  63  58 E8        30.11S
TRAVERSE CITY  CLOUDY    81  58  45 SW8       30.10R
$$
MIZ007>008-015-232300-
EASTERN UPPER MICHIGAN

CITY           SKY/WX    TMP DP  RH WIND       PRES   REMARKS
KINROSS        SUNNY     78  60  53 SW13G22   30.09F
MACKINAC ISLAN SUNNY     75  62  64 SW8G18    30.10S
NEWBERRY       SUNNY     76  61  59 S20G26    30.07S
S. S. MARIE    SUNNY     79  61  53 SW15G23   30.08R
$$
MIZ004>006-011>014-085-232300-
CENTRAL UPPER MICHIGAN

CITY           SKY/WX    TMP DP  RH WIND       PRES   REMARKS
MANISTIQUE     SUNNY     69  64  83 S9        30.08R
ESCANABA       MOSUNNY   77  67  71 S13G18    30.04R
MENOMINEE      CLOUDY   N/A N/A N/A SW18G24   30.05S
SAWYER-GWINN   SUNNY     81  59  47 S17G23    30.02S
$$
MIZ001>003-009>011-084-232300-
WESTERN UPPER MICHIGAN

CITY           SKY/WX    TMP DP  RH WIND       PRES   REMARKS
IRON MOUNTAIN  SUNNY     81  61  50 SW16      30.03R
HOUGHTON       SUNNY     85  60  42 S10       29.94R
COPPER HARBOR    N/A     82  61  48 SW7       29.91S
$$

ABBREVIATIONS USED IN REMARKS
   TC - TEMPERATURE IN CELSIUS
  WCI - WIND CHILL INDEX
   HX - HEAT INDEX
  VSB - VISIBILITY





USA.gov is the U.S. government's official web portal to all federal, state and local government web resources and services.